Zurück zum Katalog

ARIANE 6 R/B

AktivVLEO
NORAD 60239·ROCKET BODY·🇫🇷 France

Gestartet Jul 9, 2024 von Guiana Space Centre

Loading…

Nächste Überflüge (nächste 24 Stunden)

TLE

AktuellSource: Space-Track

Epoche: Sep 14, 2026, 02:46 UTC

1 60239U 24128E   26257.11543808  .00000649  00000-0  66946-4 0  9993
2 60239  62.0108 282.6661 0030733 157.3649 202.8805 15.00597551119375

Verfolge ARIANE 6 R/B in Echtzeit mit AllMySat

Download on the App Store